TimePDT,TemperatureF,Dew PointF,Humidity,Sea Level PressureIn,VisibilityMPH,Wind Direction,Wind SpeedMPH,Gust SpeedMPH,PrecipitationIn,Events,Conditions,WindDirDegrees,DateUTC
12:53 AM,54.0,48.0,80,30.12,10.0,SW,3.5,-,N/A,,Clear,230,2013-08-21 07:53:00
1:53 AM,51.1,46.9,86,30.12,10.0,Calm,Calm,-,N/A,,Clear,0,2013-08-21 08:53:00
2:53 AM,46.9,44.1,90,30.11,10.0,Calm,Calm,-,N/A,,Clear,0,2013-08-21 09:53:00
3:53 AM,48.9,44.1,83,30.11,10.0,Calm,Calm,-,N/A,,Clear,0,2013-08-21 10:53:00
4:53 AM,55.0,45.0,69,30.10,10.0,SW,10.4,-,N/A,,Clear,230,2013-08-21 11:53:00
5:53 AM,55.0,45.0,69,30.10,10.0,WSW,11.5,-,N/A,,Clear,240,2013-08-21 12:53:00
6:53 AM,50.0,44.1,80,30.11,10.0,Calm,Calm,-,N/A,,Clear,0,2013-08-21 13:53:00
7:53 AM,61.0,48.0,62,30.12,10.0,Calm,Calm,-,N/A,,Clear,0,2013-08-21 14:53:00
8:53 AM,66.9,48.0,51,30.12,10.0,East,6.9,-,N/A,,Clear,100,2013-08-21 15:53:00
9:53 AM,68.0,48.9,50,30.11,10.0,East,6.9,-,N/A,,Clear,90,2013-08-21 16:53:00
10:53 AM,70.0,50.0,49,30.11,10.0,ESE,8.1,-,N/A,,Clear,110,2013-08-21 17:53:00
11:53 AM,70.0,50.0,49,30.10,10.0,East,9.2,-,N/A,,Clear,90,2013-08-21 18:53:00
12:53 PM,72.0,50.0,46,30.09,10.0,Variable,5.8,-,N/A,,Clear,0,2013-08-21 19:53:00
1:53 PM,73.0,48.0,41,30.07,10.0,Variable,5.8,-,N/A,,Clear,0,2013-08-21 20:53:00
2:53 PM,77.0,43.0,30,30.04,10.0,East,8.1,-,N/A,,Clear,90,2013-08-21 21:53:00
3:53 PM,78.1,41.0,27,30.03,10.0,Variable,3.5,-,N/A,,Clear,0,2013-08-21 22:53:00
4:53 PM,79.0,46.0,31,30.01,10.0,NE,6.9,-,N/A,,Clear,40,2013-08-21 23:53:00
5:53 PM,69.1,48.0,47,30.00,10.0,North,6.9,-,N/A,,Clear,350,2013-08-22 00:53:00
6:53 PM,68.0,48.0,49,29.99,10.0,NW,5.8,-,N/A,,Clear,310,2013-08-22 01:53:00
7:53 PM,64.9,48.0,54,29.98,10.0,WSW,4.6,-,N/A,,Clear,250,2013-08-22 02:53:00
8:53 PM,61.0,48.9,64,29.98,10.0,Calm,Calm,-,N/A,,Clear,0,2013-08-22 03:53:00
9:53 PM,57.0,48.9,74,29.99,10.0,Calm,Calm,-,N/A,,Clear,0,2013-08-22 04:53:00
10:53 PM,57.0,46.9,69,29.98,10.0,SW,4.6,-,N/A,,Clear,220,2013-08-22 05:53:00
11:53 PM,53.1,45.0,74,29.97,10.0,SSE,3.5,-,N/A,,Clear,150,2013-08-22 06:53:00